When you browse on this site, cookies collect data to enhance your experience and personalize the content and advertising you see.
Visit our Privacy Policy to learn more. By continuing to use the site, you agree to this use of cookies and data.
  • In Hungary
  • List of Countries
  • For 7 days
  • Water Temperature
  • Weather Map
  • News
  • Weather Widgets
  • user-avatar
    Login

    Hourly Weather Caucel

    Today, 14 November, Thursday

    Time Temperature Precipitation Wind Pressure Humidity
    00:00 +25°C° 0 mm 3 mps 760 mmHg 94%
    01:00 +24°C° 0.6 mm 2 mps 760 mmHg 95%
    02:00 +24°C° 0.6 mm 2 mps 759 mmHg 96%
    03:00 +24°C° 0.6 mm 2 mps 759 mmHg 97%
    04:00 +24°C° 0.4 mm 2 mps 759 mmHg 97%
    05:00 +24°C° 0.4 mm 2 mps 759 mmHg 97%
    06:00 +24°C° 0 mm 1 mps 759 mmHg 98%
    07:00 +25°C° 0.3 mm 1 mps 760 mmHg 93%
    08:00 +27°C° 0.3 mm 2 mps 760 mmHg 88%
    09:00 +28°C° 0.3 mm 2 mps 760 mmHg 83%
    10:00 +29°C° 1.4 mm 1 mps 760 mmHg 81%
    11:00 +29°C° 1.4 mm 1 mps 759 mmHg 80%
    12:00 +28°C° 1.4 mm 0 mps 759 mmHg 78%
    13:00 +30°C° 2.2 mm 1 mps 759 mmHg 81%
    14:00 +29°C° 2.2 mm 2 mps 758 mmHg 84%
    15:00 +29°C° 2.2 mm 2 mps 758 mmHg 86%
    16:00 +27°C° 0.9 mm 3 mps 758 mmHg 89%
    17:00 +26°C° 0.9 mm 3 mps 759 mmHg 92%
    18:00 +25°C° 0.9 mm 3 mps 759 mmHg 95%
    19:00 +25°C° 0.1 mm 3 mps 760 mmHg 95%
    20:00 +25°C° 0.1 mm 4 mps 760 mmHg 95%
    21:00 +25°C° 0.1 mm 4 mps 761 mmHg 95%
    22:00 +25°C° 0.2 mm 4 mps 761 mmHg 95%
    23:00 +25°C° 0.2 mm 4 mps 761 mmHg 95%

    Tomorrow, 15 November, Friday

    Time Temperature Precipitation Wind Pressure Humidity
    00:00 +25°C° 0.2 mm 4 mps 760 mmHg 95%
    01:00 +25°C° 0.1 mm 4 mps 760 mmHg 95%
    02:00 +25°C° 0.1 mm 3 mps 760 mmHg 95%
    03:00 +25°C° 0.1 mm 3 mps 760 mmHg 95%
    04:00 +25°C° 0.4 mm 3 mps 760 mmHg 95%
    05:00 +24°C° 0.4 mm 3 mps 760 mmHg 95%
    06:00 +24°C° 0.4 mm 3 mps 761 mmHg 94%
    07:00 +25°C° 0 mm 3 mps 761 mmHg 89%
    08:00 +26°C° 0 mm 4 mps 761 mmHg 83%
    09:00 +27°C° 0 mm 4 mps 762 mmHg 77%
    10:00 +28°C° 0 mm 4 mps 762 mmHg 73%
    11:00 +29°C° 0 mm 5 mps 761 mmHg 68%
    12:00 +30°C° 0 mm 5 mps 761 mmHg 64%
    13:00 +29°C° 0.2 mm 5 mps 761 mmHg 67%
    14:00 +28°C° 0.2 mm 5 mps 760 mmHg 71%
    15:00 +28°C° 0.2 mm 6 mps 760 mmHg 74%
    16:00 +27°C° 0.1 mm 5 mps 760 mmHg 77%
    17:00 +26°C° 0.1 mm 5 mps 761 mmHg 79%
    18:00 +25°C° 0.1 mm 4 mps 761 mmHg 82%
    19:00 +25°C° 0 mm 4 mps 762 mmHg 81%
    20:00 +23°C° 0 mm 4 mps 762 mmHg 81%
    21:00 +23°C° 0 mm 4 mps 763 mmHg 80%
    22:00 +24°C° 0 mm 3 mps 763 mmHg 81%
    23:00 +24°C° 0 mm 3 mps 763 mmHg 82%

    Day after tomorrow, 16 November, Saturday

    Time Temperature Precipitation Wind Pressure Humidity
    00:00 +22°C° 0 mm 3 mps 762 mmHg 82%
    01:00 +22°C° 0 mm 3 mps 762 mmHg 81%
    02:00 +22°C° 0 mm 3 mps 762 mmHg 81%
    03:00 +22°C° 0 mm 3 mps 761 mmHg 80%
    04:00 +22°C° 0.1 mm 3 mps 762 mmHg 82%
    05:00 +21°C° 0.1 mm 3 mps 762 mmHg 84%
    06:00 +21°C° 0.1 mm 3 mps 762 mmHg 86%
    07:00 +22°C° 0 mm 3 mps 763 mmHg 78%
    08:00 +23°C° 0 mm 4 mps 763 mmHg 71%
    09:00 +26°C° 0 mm 4 mps 763 mmHg 63%
    10:00 +26°C° 0 mm 4 mps 763 mmHg 61%
    11:00 +26°C° 0 mm 4 mps 762 mmHg 59%
    12:00 +27°C° 0 mm 4 mps 762 mmHg 57%
    13:00 +26°C° 0 mm 3 mps 761 mmHg 58%
    14:00 +26°C° 0 mm 3 mps 761 mmHg 58%
    15:00 +25°C° 0 mm 3 mps 760 mmHg 59%
    16:00 +24°C° 0 mm 3 mps 761 mmHg 61%
    17:00 +23°C° 0 mm 2 mps 761 mmHg 64%
    18:00 +21°C° 0 mm 2 mps 761 mmHg 67%
    19:00 +22°C° 0 mm 1 mps 761 mmHg 70%
    20:00 +21°C° 0 mm 1 mps 762 mmHg 73%
    21:00 +20°C° 0 mm 1 mps 762 mmHg 76%
    22:00 +20°C° 0 mm 1 mps 762 mmHg 76%
    23:00 +19°C° 0 mm 1 mps 762 mmHg 77%

    17 November, Sunday

    Time Temperature Precipitation Wind Pressure Humidity
    00:00 +19°C° 0 mm 1 mps 761 mmHg 78%
    01:00 +17°C° 0 mm 0 mps 761 mmHg 78%
    02:00 +17°C° 0 mm 0 mps 760 mmHg 78%
    03:00 +16°C° 0 mm 0 mps 760 mmHg 79%
    04:00 +16°C° 0 mm 0 mps 760 mmHg 80%
    05:00 +16°C° 0 mm 0 mps 761 mmHg 80%
    06:00 +16°C° 0 mm 0 mps 761 mmHg 81%
    07:00 +18°C° 0 mm 0 mps 761 mmHg 72%
    08:00 +21°C° 0 mm 0 mps 761 mmHg 64%
    09:00 +24°C° 0 mm 0 mps 761 mmHg 55%
    10:00 +27°C° 0 mm 1 mps 761 mmHg 52%
    11:00 +27°C° 0 mm 2 mps 760 mmHg 48%
    12:00 +28°C° 0 mm 2 mps 760 mmHg 45%
    13:00 +28°C° 0 mm 2 mps 759 mmHg 46%
    14:00 +28°C° 0 mm 3 mps 759 mmHg 48%
    15:00 +27°C° 0 mm 3 mps 758 mmHg 49%
    16:00 +25°C° 0 mm 3 mps 758 mmHg 57%
    17:00 +23°C° 0 mm 2 mps 758 mmHg 65%
    18:00 +20°C° 0 mm 2 mps 759 mmHg 72%
    19:00 +20°C° 0 mm 1 mps 759 mmHg 74%
    20:00 +20°C° 0 mm 1 mps 759 mmHg 75%
    21:00 +19°C° 0 mm 1 mps 760 mmHg 76%
    22:00 +19°C° 0 mm 1 mps 760 mmHg 77%
    23:00 +19°C° 0 mm 1 mps 760 mmHg 78%

    18 November, Monday

    Time Temperature Precipitation Wind Pressure Humidity
    00:00 +17°C° 0 mm 0 mps 760 mmHg 79%
    01:00 +16°C° 0 mm 0 mps 759 mmHg 80%
    02:00 +16°C° 0 mm 0 mps 759 mmHg 80%
    03:00 +16°C° 0 mm 0 mps 759 mmHg 81%
    04:00 +16°C° 0 mm 0 mps 759 mmHg 82%
    05:00 +18°C° 0 mm 1 mps 759 mmHg 82%
    06:00 +18°C° 0 mm 1 mps 760 mmHg 83%
    07:00 +20°C° 0 mm 1 mps 760 mmHg 75%
    08:00 +23°C° 0 mm 2 mps 760 mmHg 68%
    09:00 +25°C° 0 mm 2 mps 760 mmHg 60%
    10:00 +25°C° 0 mm 2 mps 760 mmHg 58%
    11:00 +26°C° 0 mm 2 mps 760 mmHg 56%
    12:00 +27°C° 0 mm 2 mps 759 mmHg 54%
    13:00 +27°C° 0 mm 2 mps 759 mmHg 54%
    14:00 +27°C° 0 mm 2 mps 758 mmHg 53%
    15:00 +27°C° 0 mm 2 mps 757 mmHg 53%
    16:00 +25°C° 0 mm 2 mps 758 mmHg 60%
    17:00 +23°C° 0 mm 1 mps 758 mmHg 67%
    18:00 +21°C° 0 mm 1 mps 758 mmHg 74%
    19:00 +20°C° 0 mm 1 mps 759 mmHg 76%
    20:00 +20°C° 0 mm 1 mps 759 mmHg 78%
    21:00 +17°C° 0 mm 0 mps 760 mmHg 79%
    22:00 +17°C° 0 mm 0 mps 760 mmHg 80%
    23:00 +17°C° 0 mm 0 mps 760 mmHg 80%

    19 November, Tuesday

    Time Temperature Precipitation Wind Pressure Humidity
    00:00 +17°C° 0 mm 0 mps 760 mmHg 81%
    01:00 +16°C° 0 mm 0 mps 760 mmHg 82%
    02:00 +16°C° 0 mm 0 mps 759 mmHg 83%
    03:00 +16°C° 0 mm 0 mps 759 mmHg 84%
    04:00 +16°C° 0 mm 0 mps 760 mmHg 85%
    05:00 +16°C° 0 mm 0 mps 760 mmHg 85%
    06:00 +18°C° 0 mm 1 mps 761 mmHg 85%
    07:00 +20°C° 0 mm 1 mps 761 mmHg 76%
    08:00 +23°C° 0 mm 1 mps 761 mmHg 67%
    09:00 +26°C° 0 mm 1 mps 762 mmHg 58%
    10:00 +27°C° 0 mm 1 mps 761 mmHg 54%
    11:00 +29°C° 0 mm 1 mps 761 mmHg 49%
    12:00 +30°C° 0 mm 1 mps 761 mmHg 45%
    13:00 +29°C° 0 mm 2 mps 760 mmHg 48%
    14:00 +29°C° 0 mm 2 mps 760 mmHg 51%
    15:00 +28°C° 0 mm 2 mps 760 mmHg 54%
    16:00 +26°C° 0 mm 2 mps 760 mmHg 61%
    17:00 +24°C° 0 mm 2 mps 760 mmHg 68%
    18:00 +22°C° 0 mm 1 mps 761 mmHg 75%
    19:00 +22°C° 0 mm 1 mps 761 mmHg 77%
    20:00 +21°C° 0 mm 1 mps 762 mmHg 79%
    21:00 +21°C° 0 mm 1 mps 762 mmHg 81%
    22:00 +20°C° 0 mm 1 mps 762 mmHg 82%
    23:00 +20°C° 0 mm 1 mps 762 mmHg 83%
    Show more